[[{"header":{"parameterUnit":"m.s-1","parameterCategory":1,"la1":30.2992,"la2":30.254,"lo1":-89.0895,"lo2":-89.0443,"dy":0.0025,"dx":0.0025,"nx":19,"ny":19,"refTime":"2026-05-22T09:00:00:Z","depth":0,"parameterNumber":2,"parameterNumberName":"U-component_of_WINDS"},"data":[0,0,0,-2.4676,-2.4679,-2.4789,-2.4789,-2.4947,-2.4948,0,0,0,0,0,0,0,0,0,0,0,-2.4652,-2.4653,-2.4676,-2.4679,-2.4789,-2.4789,-2.4946,-2.4948,0,0,0,0,0,0,0,0,0,0,0,-2.4651,-2.4653,-2.4654,-2.4679,-2.4789,-2.4789,-2.4946,-2.4858,0,0,0,0,0,0,0,0,0,0,-2.4748,-2.4733,-2.4652,-2.4654,-2.468,-2.4788,-2.4789,-2.4853,-2.4863,-2.4903,0,-2.4939,0,-2.4946,-2.496,-2.496,0,0,0,-2.4674,-2.4725,-2.4747,-2.4655,-2.4681,-2.4788,-2.4738,-2.4859,-2.487,-2.4917,-2.4942,-2.4947,-2.4949,-2.4961,-2.4962,-2.5207,-2.5208,0,0,-2.4667,-2.4677,-2.4739,-2.4754,-2.4736,-2.4734,-2.4741,-2.4865,-2.4894,-2.4942,-2.495,-2.4951,-2.4962,-2.4963,-2.5205,-2.5207,0,0,0,-2.4654,-2.4673,-2.4691,-2.4748,-2.4767,-2.4737,-2.4745,-2.4888,-2.4893,-2.4952,-2.4953,-2.4963,-2.4965,-2.5204,-2.5206,-2.5283,0,0,0,-2.465,-2.4664,-2.4689,-2.4696,-2.4765,-2.4828,-2.4766,-2.4885,-2.4898,-2.4952,-2.4963,-2.4967,-2.5202,-2.5205,-2.5277,-2.5318,0,0,0,-2.4642,-2.4663,-2.4682,-2.4696,-2.4743,-2.4826,-2.4838,-2.4887,-2.49,-2.496,-2.4967,-2.5201,-2.5204,-2.5272,-2.531,-2.5385,0,0,0,-2.4637,-2.475,-2.4683,-2.481,-2.4742,-2.4872,-2.4837,-2.4934,-2.4995,-2.4964,-2.5202,-2.5206,-2.5271,-2.5305,-2.538,-2.545,-2.548,0,0,-2.4785,-2.4768,-2.4842,-2.4785,-2.4929,-2.4854,-2.501,-2.5059,-2.5058,-2.5158,-2.5164,-2.5279,-2.531,-2.5384,-2.5643,-2.5667,0,0,0,-2.4892,-2.4946,-2.4982,-2.5039,-2.5077,-2.5114,-2.5138,-2.5156,-2.5239,-2.511,-2.5326,-2.5344,-2.5387,-2.5421,-2.5441,-2.5478,-2.5221,-2.5221,-2.522,-2.5116,-2.5106,-2.5228,-2.5231,-2.5288,-2.531,-2.5356,-2.5384,-2.536,-2.5411,-2.544,-2.5598,-2.5637,-2.5652,-2.5691,-2.5476,-2.5476,-2.5477,-2.5477,-2.5333,-2.5407,-2.5369,-2.5474,-2.5463,-2.5552,-2.5579,-2.5558,-2.564,-2.5575,-2.5613,-2.5543,-2.5679,-2.5712,-2.5483,-2.5482,-2.5481,-2.548,-2.548,-2.5479,-2.5512,-2.5531,-2.5612,-2.5676,-2.5677,-2.5757,-2.5745,-2.5735,-2.5772,-2.5803,-2.5801,-2.5799,-2.5787,-2.5788,-2.5788,-2.5789,-2.5789,-2.5789,-2.5623,-2.5641,-2.5709,-2.5758,-2.5793,-2.5838,-2.5861,-2.5896,-2.5932,-2.5918,-2.5918,-2.5889,-2.5693,-2.5644,-2.5798,-2.5796,-2.5795,-2.5795,-2.5794,-2.5848,-2.5795,-2.59,-2.5934,-2.5991,-2.6056,-2.6039,-2.6111,-2.6139,-2.6179,-2.6141,-2.5998,-2.5981,-2.5965,-2.5925,-2.6142,-2.6142,-2.6142,-2.6142,-2.5972,-2.5961,-2.6065,-2.6121,-2.6176,-2.617,-2.6291,-2.631,-2.6323,-2.6339,-2.6306,-2.6252,-2.6236,-2.6228,-2.6207,-2.6169,-2.6443,-2.6443,-2.6444,-2.611,-2.6104,-2.6208,-2.6216,-2.6259,-2.6297,-2.641,-2.6479,-2.6482,-2.6456,-2.6353,-2.634,-2.6252,-2.6223,-2.6196,-2.6162,-2.6093,0,0]},{"header":{"parameterUnit":"m.s-1","parameterCategory":1,"la1":30.2992,"la2":30.254,"lo1":-89.0895,"lo2":-89.0443,"dy":0.0025,"dx":0.0025,"nx":19,"ny":19,"refTime":"2026-05-22T09:00:00:Z","depth":0,"parameterNumber":3,"parameterNumberName":"V-component_of_WINDS"},"data":[0,0,0,4.617,4.6173,4.6324,4.6324,4.6515,4.6517,0,0,0,0,0,0,0,0,0,0,0,4.6127,4.6128,4.6169,4.6173,4.6324,4.6324,4.6515,4.6517,0,0,0,0,0,0,0,0,0,0,0,4.6126,4.6128,4.613,4.6174,4.6324,4.6324,4.6514,4.6401,0,0,0,0,0,0,0,0,0,0,4.6254,4.6218,4.6127,4.613,4.6175,4.6323,4.6324,4.6395,4.6408,4.6447,0,4.6485,0,4.6504,4.653,4.653,0,0,0,4.6171,4.6207,4.6246,4.613,4.6176,4.6323,4.6255,4.6402,4.6416,4.6463,4.6487,4.6494,4.6507,4.6531,4.6532,4.6768,4.6769,0,0,4.6163,4.6155,4.6236,4.6256,4.6235,4.625,4.626,4.6411,4.6435,4.6488,4.6499,4.651,4.6532,4.6534,4.6766,4.6768,0,0,0,4.614,4.6149,4.6184,4.6248,4.6275,4.6255,4.6266,4.6429,4.6441,4.6501,4.6512,4.6533,4.6536,4.6765,4.6767,4.6817,0,0,0,4.6135,4.6136,4.6181,4.6177,4.6272,4.6355,4.628,4.643,4.6448,4.6511,4.6533,4.6538,4.6764,4.6766,4.6813,4.6841,0,0,0,4.6116,4.6133,4.6156,4.6176,4.6241,4.6352,4.6373,4.6434,4.6455,4.6531,4.6538,4.6763,4.6766,4.6809,4.6835,4.6899,0,0,0,4.6093,4.6199,4.6157,4.6279,4.624,4.6383,4.6372,4.6479,4.655,4.6534,4.6764,4.6767,4.6808,4.6831,4.6895,4.6949,4.6972,0,0,4.6222,4.6215,4.6287,4.6253,4.6402,4.6361,4.6516,4.6588,4.6603,4.6711,4.6717,4.6814,4.6835,4.6898,4.7105,4.7123,0,0,0,4.6325,4.6377,4.6418,4.6485,4.6544,4.6595,4.6644,4.667,4.6763,4.6658,4.6855,4.6868,4.6905,4.6931,4.6947,4.6977,4.6779,4.6779,4.6779,4.6495,4.6507,4.6627,4.6657,4.6722,4.6771,4.6823,4.6866,4.6861,4.6907,4.6939,4.7063,4.7094,4.7105,4.7137,4.697,4.697,4.6971,4.6971,4.6683,4.6757,4.6745,4.6856,4.6867,4.696,4.701,4.7002,4.7088,4.7041,4.7075,4.7021,4.7125,4.7153,4.6975,4.6974,4.6973,4.6973,4.6973,4.6794,4.6831,4.6862,4.6958,4.703,4.7056,4.7138,4.7146,4.7153,4.7187,4.7218,4.7218,4.7215,4.7202,4.7202,4.7203,4.7203,4.7203,4.7203,4.6897,4.6929,4.6999,4.7067,4.7109,4.7166,4.7214,4.7255,4.7301,4.73,4.73,4.7287,4.7134,4.7094,4.721,4.7209,4.7208,4.7208,4.7207,4.7079,4.7038,4.7146,4.7188,4.7267,4.7336,4.7344,4.7426,4.7461,4.75,4.748,4.7366,4.7358,4.7346,4.7313,4.7479,4.7479,4.7479,4.7479,4.7171,4.7168,4.7278,4.7344,4.741,4.7427,4.7543,4.758,4.7611,4.7632,4.761,4.7567,4.7554,4.7553,4.7537,4.7506,4.7717,4.7718,4.7718,4.7283,4.7286,4.7385,4.7416,4.7477,4.7528,4.7637,4.7711,4.7738,4.7727,4.7648,4.7638,4.7569,4.7546,4.7533,4.7508,4.7451,0,0]}]]